SCO17GH EGPH-EGBB

Flight info

Callsign SCO17GH
Flight time N/A
Altitude 15000
Route TLA N864 DCS L612 CROFT
Aircraft AT46/M-SDFGIRY/S

Departure

Time 2026-04-20 20:03
Airport Edinburgh Airport (EGPH)

Arrival

Time N/A
Airport Birmingham Airport (EGBB)
Time Latitude Longitude Altitude Speed Heading
2026-04-20 19:28 55.94858 -3.35941 113 ft 0 kts 208°
2026-04-20 19:53 55.94869 -3.35931 109 ft 2 kts 211°
2026-04-20 19:54 55.94883 -3.35914 111 ft 2 kts 217°
2026-04-20 19:54 55.94895 -3.35895 111 ft 2 kts 224°
2026-04-20 19:54 55.94906 -3.35873 112 ft 2 kts 235°
2026-04-20 19:54 55.94913 -3.35847 111 ft 2 kts 252°
2026-04-20 19:55 55.94915 -3.35818 110 ft 2 kts 275°
2026-04-20 19:55 55.94911 -3.35792 113 ft 1 kts 294°
2026-04-20 19:55 55.94910 -3.35786 111 ft 0 kts 297°
2026-04-20 19:58 55.94911 -3.35790 111 ft 3 kts 297°
2026-04-20 19:58 55.94925 -3.35824 113 ft 1 kts 325°
2026-04-20 19:58 55.94936 -3.35839 112 ft 2 kts 326°
2026-04-20 19:58 55.94944 -3.35845 113 ft 3 kts 340°
2026-04-20 19:59 55.95002 -3.35841 113 ft 9 kts 26°
2026-04-20 19:59 55.95053 -3.35863 110 ft 10 kts 305°
2026-04-20 19:59 55.95097 -3.36014 112 ft 16 kts 290°
2026-04-20 19:59 55.95136 -3.36223 112 ft 19 kts 279°
2026-04-20 20:00 55.95078 -3.36449 112 ft 23 kts 240°
2026-04-20 20:00 55.94992 -3.36706 111 ft 25 kts 239°
2026-04-20 20:00 55.94898 -3.36982 112 ft 27 kts 240°
2026-04-20 20:00 55.94802 -3.37269 112 ft 26 kts 239°
2026-04-20 20:01 55.94712 -3.37532 112 ft 23 kts 236°
2026-04-20 20:01 55.94635 -3.37759 112 ft 20 kts 239°
2026-04-20 20:01 55.94609 -3.37964 111 ft 16 kts 313°
2026-04-20 20:01 55.94688 -3.38050 110 ft 11 kts 322°
2026-04-20 20:02 55.94714 -3.38072 110 ft 0 kts 25°
2026-04-20 20:02 55.94716 -3.38068 110 ft 6 kts 44°
2026-04-20 20:02 55.94902 -3.37537 108 ft 93 kts 58°
2026-04-20 20:03 55.95254 -3.36408 481 ft 107 kts 76°
2026-04-20 20:03 55.95511 -3.35163 912 ft 108 kts 83°
2026-04-20 20:03 55.95777 -3.34026 1611 ft 91 kts 75°
2026-04-20 20:03 55.96114 -3.32950 2010 ft 105 kts 69°
2026-04-20 20:04 55.96728 -3.32080 2343 ft 117 kts 47°
2026-04-20 20:04 55.97324 -3.31189 2843 ft 110 kts 60°
2026-04-20 20:04 55.97858 -3.30123 3130 ft 123 kts 61°